Weather History for Avalon, CA

Change the Weather History Date:

Thursday, January 24, 2013

  Actual Average Record
Temperature  
Mean Temperature 54 °F -  
Max Temperature 59 °F 57 °F 69 °F (2003)
Min Temperature 48 °F 47 °F 41 °F (2008)
Degree Days  
Heating Degree Days 12    
Growing Degree Days 4 (Base 50)    
Moisture  
Dew Point 51 °F    
Average Humidity 90    
Maximum Humidity 100    
Minimum Humidity 75    
Precipitation  
Precipitation 0.42 in - - ()
Sea Level Pressure  
Sea Level Pressure 30.12 in    
Wind  
Wind Speed 15 mph (SE)    
Max Wind Speed 23 mph    
Max Gust Speed 32 mph    
Visibility 5 miles    
Events Fog , Rain    
Averages and records for this station are not official NWS values.
T = Trace of Precipitation, MM = Missing Value Source: NWS Daily Summary

Daily Weather History Graph

Daily Weather History Graph

Search for Another Location

Airport:

Trip Planner

Search our weather history database for the weather conditions in past years. The results will help you decide how hot, cold, wet, or windy it might be!

Date:

Astronomy

Jan. 24, 2013 Rise Set
Actual Time 6:54 AM PST 5:17 PM PST
Civil Twilight 6:27 AM PST 5:44 PM PST
Nautical Twilight 5:57 AM PST 6:14 PM PST
Astronomical Twilight 5:28 AM PST 6:43 PM PST
Moon 3:25 PM PST 4:53 AM PST
Length of Visible Light 11h 16m
Length of Day
10h 23m
Waxing Gibbous, 95% of the Moon is Illuminated
Jan 24
Waxing Gibbous
Jan 26
Full
Feb 3
Last Quarter
Feb 9
New
Feb 17
First Quarter

Hourly Weather History & Observations

Time (PST) Temp. Dew Point Humidity Pressure Visibility Wind Dir Wind Speed Gust Speed Precip Events Conditions
12:16 AM 51.8 °F 50.0 °F 94% 30.10 in 4.0 mi SE 21.9 mph 31.1 mph 0.02 in Rain Light Rain
12:35 AM 51.8 °F 48.2 °F 88% 30.10 in 5.0 mi SE 23.0 mph 32.2 mph 0.03 in Rain Light Rain
12:51 AM 51.1 °F 48.9 °F 92% 30.09 in 6.0 mi SE 19.6 mph 28.8 mph 0.04 in Rain Light Rain
1:30 AM 48.2 °F 46.4 °F 93% 30.10 in 1.5 mi SE 17.3 mph 25.3 mph 0.08 in Rain Rain
1:40 AM 48.2 °F 46.4 °F 93% 30.10 in 1.0 mi SE 18.4 mph 25.3 mph 0.10 in Rain Light Rain
1:49 AM 48.2 °F 48.2 °F 100% 30.10 in 0.5 mi SE 16.1 mph - 0.10 in Fog , Rain Light Rain
1:51 AM 48.9 °F 48.0 °F 97% 30.08 in 0.2 mi SE 17.3 mph - 0.10 in Fog , Rain Light Rain
2:51 AM 50.0 °F 48.9 °F 96% 30.07 in 0.2 mi SE 12.7 mph - 0.09 in Fog , Rain Rain
3:51 AM 51.1 °F 51.1 °F 100% 30.06 in 0.2 mi SSE 12.7 mph 18.4 mph 0.07 in Fog , Rain Light Rain
4:01 AM 51.8 °F 51.8 °F 100% 30.08 in 0.5 mi SSE 13.8 mph 20.7 mph 0.01 in Fog , Rain Light Rain
4:05 AM 51.8 °F 51.8 °F 100% 30.08 in 1.0 mi SSE 11.5 mph 20.7 mph 0.02 in Rain Light Rain
4:12 AM 51.8 °F 51.8 °F 100% 30.08 in 0.5 mi SSE 12.7 mph 21.9 mph 0.02 in Fog , Rain Light Rain
4:23 AM 51.8 °F 50.0 °F 94% 30.08 in 0.2 mi SE 11.5 mph 21.9 mph 0.02 in Fog , Rain Light Rain
4:31 AM 51.8 °F 50.0 °F 94% 30.08 in 0.2 mi SE 12.7 mph 19.6 mph 0.02 in Fog , Rain Light Rain
4:51 AM 50.0 °F 50.0 °F 100% 30.06 in 0.2 mi SE 12.7 mph - 0.02 in Fog Fog
5:51 AM 53.1 °F 52.0 °F 96% 30.09 in 0.2 mi SSE 11.5 mph 17.3 mph 0.00 in Fog , Rain Light Rain
6:26 AM 53.6 °F 53.6 °F 100% 30.11 in 1.2 mi SSE 9.2 mph - 0.02 in Rain Light Rain
6:36 AM 53.6 °F 53.6 °F 100% 30.12 in 0.8 mi SSE 8.1 mph 16.1 mph 0.05 in Rain Rain
6:46 AM 53.6 °F 53.6 °F 100% 30.12 in 1.5 mi South 6.9 mph - 0.09 in Rain Rain
6:49 AM 53.6 °F 53.6 °F 100% 30.11 in 2.0 mi SSE 9.2 mph - 0.10 in Rain Rain
6:53 AM 53.6 °F 53.6 °F 100% 30.11 in 3.0 mi South 6.9 mph - 0.00 in Rain Rain
7:05 AM 53.6 °F 53.6 °F 100% 30.11 in 4.0 mi SSE 9.2 mph - 0.03 in Rain Rain
7:11 AM 53.6 °F 53.6 °F 100% 30.11 in 1.8 mi SSE 6.9 mph - 0.04 in Rain Light Rain
7:14 AM 53.6 °F 53.6 °F 100% 30.11 in 0.8 mi SSE 9.2 mph - 0.04 in Rain Light Rain
7:21 AM 53.6 °F 53.6 °F 100% 30.11 in 0.5 mi SSE 10.4 mph - 0.05 in Fog , Rain Light Rain
7:38 AM 53.6 °F 53.6 °F 100% 30.12 in 0.2 mi SSE 10.4 mph 17.3 mph 0.07 in Fog , Rain Rain
7:51 AM 55.0 °F 55.0 °F 100% 30.12 in 0.5 mi South 6.9 mph - 0.09 in Fog , Rain Light Rain
8:43 AM 53.6 °F 53.6 °F 100% 30.15 in 1.2 mi SSE 13.8 mph 21.9 mph 0.01 in Rain Light Rain
8:51 AM 54.0 °F 53.1 °F 97% 30.14 in 2.5 mi SSE 16.1 mph 24.2 mph 0.01 in Rain Light Rain
9:10 AM 51.8 °F 51.8 °F 100% 30.16 in 4.0 mi SSE 16.1 mph 26.5 mph 0.00 in   Overcast
9:51 AM 53.1 °F 52.0 °F 96% 30.16 in 8.0 mi SSE 17.3 mph 32.2 mph 0.00 in   Overcast
10:13 AM 53.6 °F 51.8 °F 94% 30.17 in 10.0 mi SE 19.6 mph 28.8 mph N/A   Mostly Cloudy
10:40 AM 53.6 °F 48.2 °F 82% 30.18 in 10.0 mi SE 17.3 mph 27.6 mph N/A   Mostly Cloudy
10:47 AM 55.4 °F 48.2 °F 77% 30.18 in 10.0 mi SE 21.9 mph 28.8 mph N/A   Mostly Cloudy
10:51 AM 55.0 °F 48.0 °F 77% 30.17 in 10.0 mi SE 20.7 mph 28.8 mph N/A   Mostly Cloudy
11:17 AM 55.4 °F 48.2 °F 77% 30.17 in 10.0 mi SE 16.1 mph 26.5 mph N/A   Overcast
11:36 AM 55.4 °F 48.2 °F 77% 30.16 in 10.0 mi SE 20.7 mph 26.5 mph N/A   Overcast
11:51 AM 54.0 °F 48.0 °F 80% 30.15 in 10.0 mi SE 17.3 mph 25.3 mph N/A   Overcast
12:20 PM 55.4 °F 48.2 °F 77% 30.15 in 10.0 mi SE 15.0 mph - N/A   Overcast
12:51 PM 55.9 °F 48.9 °F 77% 30.14 in 10.0 mi SE 15.0 mph 23.0 mph N/A   Overcast
1:21 PM 55.4 °F 50.0 °F 82% 30.14 in 10.0 mi SE 10.4 mph - N/A   Overcast
1:51 PM 57.0 °F 51.1 °F 81% 30.13 in 10.0 mi SE 9.2 mph - N/A   Mostly Cloudy
2:08 PM 59.0 °F 51.8 °F 77% 30.13 in 8.0 mi SE 6.9 mph 18.4 mph N/A   Mostly Cloudy
2:19 PM 57.2 °F 50.0 °F 77% 30.13 in 10.0 mi SE 11.5 mph 18.4 mph N/A   Mostly Cloudy
2:51 PM 57.9 °F 50.0 °F 75% 30.11 in 10.0 mi SE 12.7 mph - N/A   Overcast
3:51 PM 57.0 °F 50.0 °F 77% 30.12 in 10.0 mi SE 10.4 mph - N/A   Mostly Cloudy
4:26 PM 57.2 °F 50.0 °F 77% 30.14 in 10.0 mi SSE 9.2 mph - N/A   Mostly Cloudy
4:51 PM 57.0 °F 50.0 °F 77% 30.14 in 7.0 mi SE 6.9 mph - N/A   Overcast
5:23 PM 55.4 °F 50.0 °F 82% 30.15 in 10.0 mi SE 3.5 mph - N/A   Overcast
5:48 PM 55.4 °F 50.0 °F 82% 30.14 in 7.0 mi SSE 5.8 mph - N/A   Scattered Clouds
5:51 PM 55.9 °F 50.0 °F 80% 30.13 in 7.0 mi SSE 4.6 mph - N/A   Scattered Clouds
6:51 PM 55.9 °F 51.1 °F 84% 30.13 in 10.0 mi East 5.8 mph - N/A   Partly Cloudy
7:51 PM 57.0 °F 52.0 °F 83% 30.12 in 10.0 mi ESE 12.7 mph - N/A   Mostly Cloudy
8:51 PM 57.0 °F 52.0 °F 83% 30.13 in 10.0 mi SE 9.2 mph - 0.00 in Rain Light Rain
9:51 PM 57.0 °F 53.1 °F 87% 30.14 in 10.0 mi East 6.9 mph - 0.00 in   Overcast
10:51 PM 57.0 °F 52.0 °F 83% 30.14 in 10.0 mi ENE 5.8 mph - N/A   Overcast
11:51 PM 55.9 °F 52.0 °F 87% 30.13 in 10.0 mi NE 5.8 mph - 0.00 in Rain Light Rain